Regional Weather Roundup
Issued by NWS Green Bay, WI

Home | Current Version | Previous Version | Graphics & Text | Print | Product List | Glossary Off
Versions: 1 2 3 4 5 6 7 8 9 10 11 12 13 14 15 16 17 18 19 20 21 22 23 24 25 26 27 28 29 30 31 32 33 34 35 36 37 38 39 40 41 42 43 44 45 46 47 48 49 50

000
ASUS43 KGRB 312210
RWRGRB

NORTH-CENTRAL AND NORTHEAST WISCONSIN REGIONAL WEATHER ROUNDUP
NATIONAL WEATHER SERVICE GREEN BAY WI
400 PM CST SAT JAN 31 2015

WIZ005-009-010>012-018-019-312300-
NORTH CENTRAL WISCONSIN

CITY           SKY/WX    TMP DP  RH WIND       PRES   REMARKS
IRONWOOD       CLOUDY    16  10  79 N6        30.21F WCI   7
MANITOWISH WTR CLOUDY    16   8  71 N9        30.18S WCI   5
ARBOR VITAE    FLURRIES  22  13  70 N9        30.16S
EAGLE RIVER    CLOUDY    19   8  63 N8G17     30.16R WCI   8
LAND O LAKES   FLURRIES  17  10  73 N10       30.18S WCI   5
RHINELANDER    CLOUDY    21  11  65 N3        30.16R
PHILLIPS       CLOUDY    19  12  72 N10       30.17S WCI   8
ANTIGO         CLOUDY    23  17  78 N9        30.15S
TOMAHAWK       CLOUDY    22  13  68 NW7       30.17R
MERRILL        CLOUDY    24  16  73 N9        30.17R
$$

WIZ013-073-312300-
NORTHEAST WISCONSIN

CITY           SKY/WX    TMP DP  RH WIND       PRES   REMARKS
IRON MOUNTAIN  MOCLDY    22  11  62 N13       30.17R WCI  10
MARINETTE      CLOUDY    28  18  64 N5        30.19R
OCONTO         CLOUDY    28  19  69 MISG      30.20R
$$

WIZ017-030-035>037-045-312300-
CENTRAL WISCONSIN

CITY           SKY/WX    TMP DP  RH WIND       PRES   REMARKS
MEDFORD        CLOUDY    24  16  73 N9        30.15R
WAUSAU         CLOUDY    26  17  68 N5        30.15R
MOSINEE        NOT AVBL
MARSHFIELD     CLOUDY    28  18  66 N3        30.16S
WISC RAPIDS    CLOUDY    28  18  66 N8        30.18S
STEVENS POINT  CLOUDY    26  18  72 NE6       30.17R
WAUPACA        CLOUDY    31  21  65 N3        30.18S
SHAWANO        CLOUDY    31  20  65 NE6       30.18S
CLINTONVILLE   CLOUDY    30  19  64 N7        30.18S
$$

WIZ038-039-048-051-312300-
FOX VALLEY

CITY           SKY/WX    TMP DP  RH WIND       PRES   REMARKS
NWS GREEN BAY  CLOUDY    28  19  69 NW3       30.19R
APPLETON       CLOUDY    27  18  69 CALM      30.18R
OSHKOSH        CLOUDY    28  19  69 NE6       30.18R
FOND DU LAC    CLOUDY    28  19  69 N9        30.18R
$$

WIZ022-050-052-312300-
EAST CENTRAL WISCONSIN

CITY           SKY/WX    TMP DP  RH WIND       PRES   REMARKS
STURGEON BAY   CLOUDY    27  18  69 NW3       30.22R
MANITOWOC      CLOUDY    28  20  71 N6        30.19R
SHEBOYGAN      CLOUDY    29  19  66 NE7       30.18R
$$

LMZ563-521-522-541>543-312300-
LAKESHORE

STATION/POSITION TIME  TEMP    WIND        PRES    VSBY  WAVE
                       AIR SEA DIR/SP/G                  HT/PER
                 (UTC) (F)     (DEG/KT/KT) (MB)    (MI)  (FT/S)
SHEBOYGAN LKSHOR 2200   29      10/  8/  9 1023.6R
KEWAUNEE LKSHORE 2200   27      20/  4/  7 1021.6R
NORTHPORT PIER   2200   25     360/ 17/ 19 1022.7R
SISTER BAY LKSHO 2200   26      30/  5/ 11   N/A
CHAMBERS ISLAND  2200   28     320/  9/ 15 1022.4S
MENOMINEE LKSHOR 2200   28     340/  8     1023.0R
$$


USA.gov is the U.S. government's official web portal to all federal, state and local government web resources and services.